Location: Unspecified
(0.0000°N, 0.0000°E)
Time: 17:58:32
(UTC+00:00)

STARLINK 1023 - Pass Details

Date: 16 January 2020
Orbit: 346 x 354 km, 53.0° (Epoch: 18 January)

Event Time Altitude Azimuth Distance (km) Brightness Sun altitude
Rises 04:58:54 0° 180° (S) 2,138 6.9 -16.4°
Reaches altitude 10° 05:02:24 10° 135° (SE) 1,295 6.6 -15.6°
Maximum altitude 05:02:54 10° 125° (SE) 1,277 6.8 -15.5°
Drops below altitude 10° 05:03:25 10° 115° (ESE) 1,295 6.9 -15.4°
Sets 05:06:54 0° 69° (ENE) 2,134 7.4 -14.6°
